Regional Weather Roundup
Issued by NWS Newport/Morehead, NC

Current Version | Previous Version | Graphics & Text | Print | Product List | Glossary Off
Versions: 1 2 3 4 5 6 7 8 9 10 11 12 13 14 15 16 17 18 19 20 21 22 23 24 25 26 27 28 29 30 31 32 33 34 35 36 37 38 39 40 41 42 43 44 45 46 47 48 49 50

000
ASUS42 KMHX 302222
RWRMHX
WEATHER ROUNDUP FOR EASTERN NORTH CAROLINA
NATIONAL WEATHER SERVICE NEWPORT/MOREHEAD CITY NC
500 PM EST FRI JAN 30 2015

NOTE: "FAIR" INDICATES FEW OR NO CLOUDS BELOW 12,000 FEET
WITH NO SIGNIFICANT WEATHER AND/OR OBSTRUCTIONS TO VISIBILITY

NCZ015>017-031-032-045>047-102-103-302300-
NORTH COAST

CITY           SKY/WX    TMP DP  RH WIND       PRES   REMARKS
EDENTON        MOCLDY    45  22  40 NW8       30.06R
ELIZABETH CITY MOCLDY    40  28  62 NW9       30.05R
KITTY HAWK     DRIZZLE   40  29  65 NW9G20    30.04R
MANTEO         CLOUDY    39  28  65 N12G17    30.05R

$$

NCZ045>047-081-094-103-104-302300-
CENTRAL COAST

CITY           SKY/WX    TMP DP  RH WIND       PRES   REMARKS
FRISCO         CLOUDY    42  30  62 NW8       30.05R
SWANQUARTER    NOT AVBL

$$

NCZ095-097-098-100-101-302300-
SOUTHERN COAST

CITY           SKY/WX    TMP DP  RH WIND       PRES   REMARKS
BEAUFORT       PTCLDY    47  24  40 NW20G25   30.07R
CEDAR ISLAND   NOT AVBL
JACKSONVILLE   CLEAR     48  18  30 NW16G29   30.09R
PINEY ISLAND     N/A    N/A N/A N/A MISG      30.06R
WILMINGTON     CLEAR     49  20  31 NW15G25   30.11R


$$

NCZ011>013-027>030-043-044-078>080-089-090>093-098-302300-
COASTAL PLAIN

CITY           SKY/WX    TMP DP  RH WIND       PRES   REMARKS
AHOSKIE        CLOUDY    44  16  31 NW7       30.08R
CLINTON        CLEAR     49  20  33 NW7G17    30.13R
ELIZABETHTOWN  CLEAR     49  18  28 NW8G17    30.14R
GOLDSBORO      MOCLDY    50  23  34 NW18G25   30.05S
GREENVILLE     CLEAR     46  18  31 NW13G21   30.11R
HAVELOCK       PTCLDY    48  19  31 NW20      30.08R
KENANSVILLE    CLEAR     47  16  29 NW9G16    30.13R
KINSTON        CLEAR     46  18  31 NW15G21   30.11R
NEW BERN       CLEAR     49  18  29 NW18G25   30.09R
RICHLANDS      CLEAR     46  16  29 NW10G18   30.12R
ROCKY MOUNT    CLEAR     45  14  28 NW20G29   30.12R
WASHINGTON     CLEAR     45  17  33 NW12G22   30.08R
WHITEVILLE     CLEAR     49  19  30 NW6       30.13R

$$

AMZ130-135-150-152-154-156-158-170-250-252-270-ANZ085-086-088-633-658-670-302300-
MARINE OBSERVATIONS

STATION/POSITION TIME  TEMP    WIND        PRES    WAVE   SWELL
                       AIR SEA DIR/SP/G            HT/PER HT/PER
                 (UTC) (F)     (DEG/KT/KT) (MB)    (FT/S) (FT/S)
CHESAPEAKE LIGHT 2200   39     330/ 31/ 33 1017.2
64 E VA BEACH    2200   42 49  320/ 27/ 35 1015.0    9/ 6   2/15
DUCK             2200   39 44  350/ 16/ 17 1016.6
2 E DUCK         2200      43                N/A     5/ 6
10 NE DUCK       2200      45                N/A     6/ 6
OREGON INLET     2200   40 42  350/ 14/ 19 1017.4
13E OREGON INLT  2200      43                N/A     6/ 7   2/11
HATTERAS CG      2200   44 46  340/ 12/ 18 1017.9
DIAMOND BUOY     2200   46 68  330/ 21/ 27 1016.7    5/ 6   2/11
17 S OCRACOKE    NOT AVBL
CAPE LOOKOUT     2200   47     330/ 17/ 21 1018.1
BEAUFORT LAB     2200   47 47  330/  9/ 15 1017.4
27 SE WRIGHTSVLE NOT AVBL
5 SE WRIGHTSVLE  2200   50 52  340/ 16/ 21 1019.1
225 S CAPE HAT   2149   62 71  310/ 27/ 35 1014.4   13/ 9
41 SE CHARLESTON 2200   56 68  320/ 17/ 23 1019.4    5/ 5   2/ 9

$$



USA.gov is the U.S. government's official web portal to all federal, state and local government web resources and services.